Hourly Weather Roundup
Issued by NWS Central Illinois

Home | Current Version | Previous Version | Text Only | Print | Product List | Glossary On
Versions: 1 2 3 4 5 6 7 8 9 10 11 12 13 14 15 16 17 18 19 20 21 22 23 24 25 26 27 28 29 30 31 32 33 34 35 36 37 38 39 40 41 42 43 44 45 46 47 48 49 50
000
NZUS43 KILX 281010
HWRILX

AREA WEATHER ROUNDUP
NATIONAL WEATHER SERVICE, LINCOLN IL
500 AM CDT MON JUL 28 2014


CITY           SKY/WX    TMP DP  RH WIND       PRES   REMARKS
BLOOMINGTON    CLEAR     60  53  77 N12       30.02R
CHAMPAIGN      CLEAR     61  57  87 N10       29.98R
DECATUR        CLEAR     63  60  90 NW9       29.99R
FLORA          CLEAR     64  59  84 NW8       29.98R
GALESBURG      CLEAR     60  57  89 N10       30.04R
JACKSONVILLE   CLEAR     63  61  93 NW6       30.04R
LACON          MOCLDY    62  56  81 NW6       30.02R
LAWRENCEVILLE  CLEAR     64  60  87 NW12      29.95R
LITCHFIELD     CLEAR     61  59  93 NW7       30.01R
$$


CITY           SKY/WX    TMP DP  RH WIND       PRES   REMARKS
LINCOLN        PTCLDY    62  60  93 NW3       29.99R
MACOMB         CLEAR     61  60  96 N6        30.07R
MATTOON        CLEAR     61  59  93 NW8       29.97R
MT CARMEL AP   CLEAR     66  61  82 NW9       29.95R
OLNEY-NOBLE AP CLEAR     63  59  88 NW3       29.97R
PARIS          CLEAR     60  59  96 W3        29.97R
PEORIA         CLEAR     64  59  83 N6        30.03R
PONTIAC        CLEAR     61  55  82 N7        30.00R
RANTOUL        CLEAR     62  55  78 NW5       29.98R
ROBINSON       MOCLDY    65  62  90 NW8       29.96R
SPRINGFIELD    CLEAR     64  61  90 NW8       30.01R
TAYLORVILLE    CLEAR     61  59  94 NW7       30.00R
$$

...REGIONAL REPORTS...


CITY           SKY/WX    TMP DP  RH WIND       PRES   REMARKS
CHICAGO O`HARE PTCLDY    61  48  62 N10       29.97R
KANKAKEE       CLEAR     60  53  76 NW6       29.97R
MOLINE         MOCLDY    64  55  72 N8        30.05R
MOUNT VERNON   CLEAR     66  55  68 CALM      29.99R
PITTSFIELD     CLEAR     64  59  85 NW6       30.06R
QUINCY         CLEAR     61  59  93 NW7       30.06R
ROCKFORD       CLEAR     58  51  78 N7        30.06R
$$


CITY           SKY/WX    TMP DP  RH WIND       PRES   REMARKS
BURLINGTON     CLEAR     63  60  90 N9        30.06R
CEDAR RAPIDS   CLEAR     59  56  89 N10       30.10R
DES MOINES     PTCLDY    63  58  83 N7        30.14R
KIRKSVILLE     CLEAR     61  57  87 NW6       30.12R
OTTUMWA        CLEAR     60  58  92 NW9       30.11R
ST LOUIS       CLEAR     66  59  78 NW6       30.03R
$$


CITY           SKY/WX    TMP DP  RH WIND       PRES   REMARKS
TERRE HAUTE    CLEAR     62  59  90 NW6       29.94R
EVANSVILLE     CLEAR     66  59  78 W5        29.95R
INDIANAPOLIS   CLOUDY    63  57  81 NW16G23   29.89R
LAFAYETTE      PTCLDY    60  54  80 NW8       29.92R
MADISON        CLEAR     56  51  84 NW9       30.06R
MILWAUKEE      CLEAR     57  48  72 NW9       29.99R
$$




USA.gov is the U.S. government's official web portal to all federal, state and local government web resources and services.